BMCB-24 Weather Reports


time (UTC)temp
C
wind
direction
speed
KPH
gust
KPH
rain 1hr
cm
rain 24hr
cm
rain mn
cm
humidity
%
barometer
mb
20260506203109 8 0 0.0 0.0 0.00 0.13 0.05 89 1012.2
20260506202111 8 0 0.0 0.0 0.00 0.15 0.05 89 1012.2
20260506201111 8 0 0.0 0.0 0.00 0.20 0.05 89 1012.1
20260506200111 8 0 0.0 0.0 0.00 0.23 0.05 89 1011.9
20260506195108 8 0 0.0 0.0 0.00 0.33 0.05 88 1011.8
20260506194110 8 0 0.0 0.0 0.00 0.41 0.05 88 1011.7
20260506193111 8 0 0.0 0.0 0.00 0.48 0.05 87 1011.5
20260506192110 8 0 0.0 0.0 0.00 0.53 0.05 86 1011.4
20260506191106 8 0 0.0 0.0 0.00 0.61 0.05 86 1011.2
20260506190110 8 0 0.0 0.0 0.00 0.61 0.05 86 1011.1
20260506185109 8 0 0.0 0.0 0.00 0.64 0.05 85 1011.0
20260506184101 9 0 0.0 0.0 0.00 0.64 0.05 85 1010.9
20260506183108 9 0 0.0 0.0 0.00 0.69 0.05 84 1010.8
20260506182110 9 0 0.0 0.0 0.00 0.71 0.05 85 1010.6
20260506181101 9 0 0.0 0.0 0.00 0.74 0.05 85 1010.4
20260506180107 9 0 0.0 0.0 0.00 0.76 0.05 85 1010.2
20260506175106 9 0 0.0 0.0 0.00 0.79 0.05 84 1010.2
20260506173102 9 0 0.0 0.0 0.00 0.79 0.05 85 1010.2
20260506171104 10 0 0.0 0.0 0.00 0.79 0.05 84 1010.0
20260506170059 10 0 0.0 0.0 0.00 0.79 0.05 83 1009.9
20260506164103 10 0 0.0 0.0 0.00 0.79 0.05 84 1009.8
20260506163100 10 0 0.0 0.0 0.00 0.79 0.05 83 1009.8
20260506162106 10 0 0.0 0.0 0.00 0.79 0.05 83 1009.8
20260506161101 10 0 0.0 0.0 0.00 0.81 0.05 83 1009.7
20260506160100 10 0 0.0 0.0 0.00 0.84 0.05 83 1009.7
20260506155102 10 0 0.0 0.0 0.00 0.84 0.05 83 1009.6
20260506154107 10 0 0.0 0.0 0.00 0.86 0.05 85 1009.6
20260506153101 10 0 0.0 0.0 0.00 0.86 0.05 86 1009.5
20260506151104 10 0 0.0 0.0 0.00 0.89 0.05 86 1009.4
20260506150100 11 0 0.0 0.0 0.00 0.89 0.05 83 1009.2
20260506145103 11 0 0.0 0.0 0.00 0.89 0.05 85 1009.2
20260506144059 10 0 0.0 0.0 0.00 0.91 0.05 87 1009.2
20260506143058 10 0 0.0 0.0 0.00 0.91 0.05 87 1009.3
20260506142058 10 0 0.0 0.0 0.00 0.91 0.05 89 1009.4
20260506140106 11 0 0.0 0.0 0.00 0.94 0.05 87 1009.3
20260506135100 10 0 0.0 0.0 0.00 0.97 0.05 88 1009.3
20260506134059 10 0 0.0 0.0 0.00 0.97 0.05 89 1009.4
20260506132059 10 0 0.0 0.0 0.00 0.99 0.05 91 1009.4
20260506131059 10 0 0.0 0.0 0.00 0.99 0.05 90 1009.3
20260506130059 10 0 0.0 0.0 0.00 1.02 0.05 91 1009.2
20260506124058 10 0 0.0 0.0 0.00 1.09 0.05 90 1009.0
20260506123102 10 0 0.0 0.0 0.00 1.14 0.05 89 1008.9
20260506122058 10 0 0.0 0.0 0.00 1.17 0.05 89 1008.8
20260506121055 10 0 0.0 0.0 0.00 1.19 0.05 90 1008.8
20260506120056 10 0 0.0 0.0 0.00 1.32 0.05 90 1008.7
20260506115057 10 0 0.0 0.0 0.00 1.45 0.05 90 1008.6
20260506114059 10 0 0.0 0.0 0.00 1.57 0.05 91 1008.6
20260506113100 10 0 0.0 0.0 0.00 1.57 0.05 91 1008.4
20260506111059 10 0 0.0 0.0 0.00 1.57 0.05 89 1008.3
20260506105056 10 0 0.0 0.0 0.00 1.57 0.05 91 1008.3
20260506104058 10 0 0.0 0.0 0.00 1.57 0.05 91 1008.2
20260506103059 10 0 0.0 0.0 0.00 1.57 0.05 91 1008.1
20260506102100 10 0 0.0 0.0 0.00 1.57 0.05 91 1008.0
20260506100057 10 0 0.0 0.0 0.00 1.57 0.05 91 1007.8
20260506094058 10 0 0.0 0.0 0.00 1.57 0.05 93 1007.6
20260506091055 10 0 0.0 0.0 0.00 1.57 0.05 95 1007.6
20260506090059 10 0 0.0 0.0 0.00 1.57 0.05 96 1007.5
20260506085058 10 0 0.0 0.0 0.00 1.57 0.05 96 1007.3
20260506083056 10 0 0.0 0.0 0.03 1.57 0.05 97 1007.1
20260506082055 10 0 0.0 0.0 0.03 1.57 0.05 98 1007.1
20260506081055 10 0 0.0 0.0 0.03 1.57 0.05 99 1007.2
20260506073056 9 0 0.0 0.0 0.00 1.55 0.05 99 1007.2
20260506072053 9 0 0.0 0.0 0.03 1.55 0.05 98 1007.1
20260506071054 9 0 0.0 0.0 0.03 1.55 0.05 98 1007.1
20260506062055 9 0 0.0 0.0 0.03 1.55 0.05 99 1006.7
20260506061054 9 0 0.0 0.0 0.00 1.55 0.03 99 1006.7
20260506051055 9 0 0.0 0.0 0.00 1.55 0.03 98 1006.3
20260506045051 9 0 0.0 0.0 0.00 1.55 0.03 99 1006.2
20260506044053 9 0 0.0 0.0 0.00 1.55 0.03 99 1006.3
20260506043054 10 0 0.0 0.0 0.00 1.55 0.03 99 1006.3
20260506041052 9 0 0.0 0.0 0.00 1.55 0.03 99 1006.4
20260506040054 9 0 0.0 0.0 0.00 1.55 0.03 99 1006.5
20260506035058 10 0 0.0 0.0 0.00 1.55 0.03 99 1006.6
20260506034057 10 0 0.0 0.0 0.00 1.55 0.03 99 1006.7
20260506033052 10 0 0.0 0.0 0.00 1.55 0.03 99 1006.6
20260506032052 10 0 0.0 0.0 0.00 1.55 0.03 99 1006.6
20260506031055 10 0 0.0 0.0 0.00 1.55 0.03 99 1006.6
20260506030053 10 0 0.0 0.0 0.00 1.55 0.03 98 1006.7
20260506025055 10 0 0.0 0.0 0.00 1.55 0.03 99 1006.7
20260506024055 10 0 0.0 0.0 0.00 1.55 0.03 99 1006.6
20260506023055 10 0 0.0 0.0 0.00 1.55 0.03 99 1006.5
20260506022056 10 0 0.0 0.0 0.00 1.55 0.03 99 1006.6
20260506021054 10 0 0.0 0.0 0.00 1.55 0.03 99 1006.6
20260506020053 10 0 0.0 0.0 0.00 1.55 0.03 99 1006.5
20260506015054 10 0 0.0 0.0 0.00 1.55 0.03 99 1006.6
20260506014054 10 0 0.0 0.0 0.03 1.55 0.03 99 1006.6
20260506013052 10 0 0.0 0.0 0.03 1.55 0.03 98 1006.7
20260506012055 10 0 0.0 0.0 0.03 1.55 0.03 98 1006.7
20260506011055 10 0 0.0 0.0 0.03 1.55 0.03 98 1006.8
20260506010050 11 0 0.0 0.0 0.03 1.55 0.03 98 1006.8
20260506005053 11 0 0.0 0.0 0.03 1.55 0.03 99 1006.8
20260506004055 11 0 0.0 0.0 0.03 1.55 0.03 99 1006.9
20260506003052 11 0 0.0 0.0 0.00 1.52 0.00 99 1006.9
20260506002055 11 0 0.0 0.0 0.00 1.52 0.00 99 1007.0
20260506001053 11 0 0.0 0.0 0.00 1.52 0.00 99 1007.1
20260506000101 11 0 0.0 0.0 0.00 1.52 0.00 99 1007.1
20260505235101 11 0 0.0 0.0 0.00 1.52 0.00 99 1007.2
20260505234102 11 0 0.0 0.0 0.00 1.52 0.00 10 1007.2
20260505233103 11 0 0.0 0.0 0.00 1.52 0.00 10 1007.3
20260505232103 11 0 0.0 0.0 0.00 1.52 0.00 10 1007.3
20260505231104 11 0 0.0 0.0 0.00 1.52 0.00 10 1007.3
20260505230107 11 0 0.0 0.0 0.00 1.52 0.00 10 1007.4
20260505225103 11 0 0.0 0.0 0.00 1.52 0.00 10 1007.5
20260505223104 11 0 0.0 0.0 0.00 1.52 0.00 10 1007.6
20260505222107 11 0 0.0 0.0 0.00 1.52 0.00 10 1007.6
20260505221108 11 0 0.0 0.0 0.00 1.52 0.00 10 1007.6
20260505215111 11 0 0.0 0.0 0.03 1.52 1.52 10 1007.8
20260505214114 11 0 0.0 0.0 0.05 1.52 1.52 10 1007.9
20260505213111 11 0 0.0 0.0 0.05 1.52 1.52 10 1007.9
20260505212112 11 0 0.0 0.0 0.10 1.52 1.52 10 1007.9
20260505211107 11 0 0.0 0.0 0.15 1.52 1.52 10 1008.0
20260505210109 11 0 0.0 0.0 0.18 1.52 1.52 10 1008.1
20260505205108 11 0 0.0 0.0 0.25 1.52 1.52 10 1008.2
20260505204109 11 0 0.0 0.0 0.33 1.50 1.50 10 1008.2